EWG56R EDDH-EDDS

Flight info

Callsign EWG56R
Flight time N/A
Altitude 33000
Route AMLUH2D AMLUH M852 DENIX Z113 SAS P605 TOSTU T726 LBU
Aircraft A320/M-SDE3FGHIRWY/LB1

Departure

Time 2026-04-22 14:26
Airport Hamburg Helmut Schmidt Airport (EDDH)

Arrival

Time N/A
Airport Stuttgart Airport (EDDS)
Time Latitude Longitude Altitude Speed Heading
2026-04-22 14:14 53.62926 10.00288 51 ft 0 kts 121°
2026-04-22 14:19 53.62928 10.00284 51 ft 2 kts 121°
2026-04-22 14:19 53.62937 10.00259 46 ft 2 kts 121°
2026-04-22 14:20 53.62955 10.00210 49 ft 2 kts 121°
2026-04-22 14:20 53.62965 10.00189 50 ft 2 kts 147°
2026-04-22 14:20 53.62980 10.00175 49 ft 2 kts 193°
2026-04-22 14:21 53.62989 10.00181 51 ft 0 kts 214°
2026-04-22 14:22 53.62972 10.00161 50 ft 7 kts 214°
2026-04-22 14:23 53.62911 10.00091 51 ft 14 kts 214°
2026-04-22 14:23 53.62833 9.99936 50 ft 21 kts 248°
2026-04-22 14:23 53.62848 9.99756 49 ft 16 kts 334°
2026-04-22 14:23 53.62924 9.99694 50 ft 0 kts 332°
2026-04-22 14:25 53.62947 9.99673 49 ft 21 kts 333°
2026-04-22 14:25 53.63327 9.99341 51 ft 97 kts 332°
2026-04-22 14:25 53.64103 9.98673 51 ft 151 kts 331°
2026-04-22 14:25 53.65083 9.97846 572 ft 160 kts 330°
2026-04-22 14:26 53.66117 9.97044 1232 ft 162 kts 335°
2026-04-22 14:26 53.67206 9.96289 1817 ft 180 kts 336°
2026-04-22 14:26 53.68446 9.95520 2520 ft 198 kts 339°
2026-04-22 14:26 53.69836 9.94983 3207 ft 215 kts 353°
2026-04-22 14:27 53.71387 9.94825 3967 ft 230 kts 359°
2026-04-22 14:27 53.72961 9.95557 4694 ft 250 kts 31°
2026-04-22 14:27 53.74171 9.97930 4981 ft 284 kts 63°
2026-04-22 14:27 53.74698 10.01241 5298 ft 299 kts 85°
2026-04-22 14:28 53.74245 10.04621 5355 ft 305 kts 116°
2026-04-22 14:28 53.72973 10.07559 5435 ft 312 kts 126°
2026-04-22 14:28 53.71751 10.10541 6089 ft 310 kts 120°
2026-04-22 14:28 53.70646 10.13688 6823 ft 313 kts 117°
2026-04-22 14:29 53.69567 10.16866 7509 ft 317 kts 122°
2026-04-22 14:29 53.68092 10.19667 8220 ft 322 kts 139°
2026-04-22 14:29 53.66147 10.21610 8946 ft 329 kts 158°
2026-04-22 14:29 53.63938 10.22705 9687 ft 332 kts 164°
2026-04-22 14:30 53.61726 10.23701 10415 ft 335 kts 164°
2026-04-22 14:30 53.59469 10.24711 11102 ft 339 kts 164°
2026-04-22 14:30 53.57183 10.25735 11806 ft 342 kts 163°
2026-04-22 14:30 53.54873 10.26783 12530 ft 344 kts 163°
2026-04-22 14:31 53.52547 10.27844 13270 ft 348 kts 163°
2026-04-22 14:31 53.50188 10.28925 14028 ft 353 kts 163°
2026-04-22 14:31 53.47805 10.30018 14724 ft 358 kts 163°
2026-04-22 14:31 53.45422 10.31106 15411 ft 361 kts 163°
2026-04-22 14:32 53.42935 10.32237 16134 ft 365 kts 163°
2026-04-22 14:32 53.40510 10.33334 16864 ft 367 kts 163°
2026-04-22 14:32 53.38032 10.34451 17603 ft 369 kts 163°
2026-04-22 14:32 53.35540 10.35574 18364 ft 371 kts 163°
2026-04-22 14:33 53.33036 10.36692 19081 ft 371 kts 163°
2026-04-22 14:33 53.30570 10.37789 19750 ft 372 kts 163°
2026-04-22 14:33 53.28064 10.38908 20456 ft 372 kts 162°
2026-04-22 14:33 53.25561 10.40031 21175 ft 371 kts 162°
2026-04-22 14:34 53.23068 10.41149 21901 ft 370 kts 162°
2026-04-22 14:34 53.20576 10.42262 22668 ft 368 kts 162°
2026-04-22 14:34 53.18935 10.42993 23173 ft 367 kts 162°
2026-04-22 14:34 53.15678 10.44409 24159 ft 364 kts 165°
2026-04-22 14:35 53.13182 10.45121 24835 ft 362 kts 171°
2026-04-22 14:35 53.11513 10.45345 25295 ft 361 kts 175°
2026-04-22 14:35 53.09012 10.45308 25990 ft 358 kts 181°
2026-04-22 14:35 53.06525 10.45041 26710 ft 353 kts 181°
2026-04-22 14:36 53.04094 10.44791 27438 ft 348 kts 180°
2026-04-22 14:36 53.01702 10.44555 28186 ft 340 kts 180°
2026-04-22 14:36 52.99357 10.44326 28958 ft 332 kts 180°
2026-04-22 14:36 52.97105 10.44107 29737 ft 323 kts 180°
2026-04-22 14:37 52.94868 10.43890 30398 ft 319 kts 179°
2026-04-22 14:37 52.92661 10.43678 30845 ft 316 kts 179°
2026-04-22 14:37 52.90469 10.43468 31294 ft 313 kts 179°
2026-04-22 14:37 52.88327 10.43260 31753 ft 309 kts 179°
2026-04-22 14:38 52.86194 10.43048 32174 ft 307 kts 179°
2026-04-22 14:38 52.84054 10.42838 32474 ft 308 kts 179°
2026-04-22 14:38 52.81900 10.42627 32754 ft 309 kts 179°
2026-04-22 14:38 52.79734 10.42413 33028 ft 311 kts 179°
2026-04-22 14:39 52.77565 10.42198 33277 ft 314 kts 179°
2026-04-22 14:39 52.75400 10.41999 33540 ft 315 kts 179°
2026-04-22 14:39 52.73204 10.41814 33826 ft 316 kts 178°
2026-04-22 14:40 52.68802 10.41496 34298 ft 320 kts 179°
2026-04-22 14:40 52.66541 10.40583 33714 ft 356 kts 207°
2026-04-22 14:40 52.64571 10.37860 33082 ft 387 kts 232°
2026-04-22 14:40 52.62857 10.34224 32360 ft 419 kts 232°
2026-04-22 14:41 52.60901 10.30394 31599 ft 450 kts 222°
2026-04-22 14:41 52.58444 10.27226 31315 ft 457 kts 214°
2026-04-22 14:41 52.53223 10.21083 31363 ft 464 kts 214°
2026-04-22 14:42 52.47945 10.14936 31365 ft 465 kts 214°
2026-04-22 14:42 52.42684 10.08836 31360 ft 465 kts 214°
2026-04-22 14:43 52.37395 10.02698 31361 ft 465 kts 214°
2026-04-22 14:43 52.32114 9.96569 31384 ft 466 kts 214°
2026-04-22 14:44 52.26706 9.90780 31378 ft 464 kts 205°
2026-04-22 14:44 52.20594 9.87574 31382 ft 461 kts 187°
2026-04-22 14:45 52.14237 9.86326 31383 ft 460 kts 185°
2026-04-22 14:45 52.07856 9.85067 31374 ft 461 kts 185°
2026-04-22 14:46 52.01532 9.83819 31374 ft 461 kts 184°
2026-04-22 14:46 51.95149 9.82574 31376 ft 461 kts 184°
2026-04-22 14:47 51.88777 9.81347 31370 ft 461 kts 184°
2026-04-22 14:47 51.82432 9.80120 31368 ft 462 kts 184°
2026-04-22 14:48 51.76020 9.78900 31364 ft 462 kts 184°
2026-04-22 14:48 51.69659 9.77703 31375 ft 462 kts 184°
2026-04-22 14:49 51.63252 9.76495 31367 ft 462 kts 184°
2026-04-22 14:49 51.60057 9.75886 31202 ft 461 kts 184°
2026-04-22 14:49 51.56917 9.75284 30801 ft 459 kts 184°
2026-04-22 14:50 51.53747 9.74679 30430 ft 457 kts 184°
2026-04-22 14:50 51.50599 9.74084 29988 ft 453 kts 184°
2026-04-22 14:50 51.47478 9.73500 29556 ft 450 kts 184°
2026-04-22 14:50 51.44362 9.72935 29129 ft 447 kts 184°
2026-04-22 14:51 51.41310 9.72421 28711 ft 444 kts 183°
2026-04-22 14:51 51.38249 9.71931 28307 ft 441 kts 183°
2026-04-22 14:51 51.35194 9.71453 27897 ft 439 kts 183°
2026-04-22 14:51 51.32153 9.70974 27490 ft 436 kts 183°
2026-04-22 14:52 51.29138 9.70496 27076 ft 433 kts 183°
2026-04-22 14:52 51.26180 9.70028 26704 ft 430 kts 183°
2026-04-22 14:52 51.23203 9.69556 26316 ft 427 kts 183°
2026-04-22 14:52 51.20254 9.69165 25933 ft 423 kts 179°
2026-04-22 14:53 51.17343 9.69209 25560 ft 419 kts 176°
2026-04-22 14:53 51.14415 9.69302 25191 ft 417 kts 176°
2026-04-22 14:53 51.11504 9.69390 24823 ft 415 kts 176°
2026-04-22 14:53 51.08626 9.69477 24460 ft 412 kts 176°
2026-04-22 14:54 51.05755 9.69566 24098 ft 410 kts 176°
2026-04-22 14:54 51.02938 9.69653 23716 ft 407 kts 176°
2026-04-22 14:54 51.00103 9.69740 23344 ft 405 kts 176°
2026-04-22 14:54 50.97289 9.69826 23060 ft 404 kts 176°
2026-04-22 14:55 50.94501 9.69912 22783 ft 402 kts 176°
2026-04-22 14:55 50.91700 9.70002 22518 ft 401 kts 176°
2026-04-22 14:55 50.88908 9.70091 22251 ft 399 kts 176°
2026-04-22 14:55 50.86133 9.70196 21977 ft 398 kts 175°
2026-04-22 14:56 50.83374 9.70406 21716 ft 396 kts 173°
2026-04-22 14:56 50.80664 9.70693 21456 ft 394 kts 173°
2026-04-22 14:56 50.77929 9.71018 21194 ft 393 kts 172°
2026-04-22 14:56 50.75212 9.71345 20974 ft 391 kts 172°
2026-04-22 14:57 50.72485 9.71661 20771 ft 390 kts 173°
2026-04-22 14:57 50.69803 9.71954 20555 ft 389 kts 173°
2026-04-22 14:57 50.67067 9.72240 20362 ft 388 kts 173°
2026-04-22 14:57 50.64408 9.72513 20159 ft 388 kts 173°
2026-04-22 14:58 50.61709 9.72791 19961 ft 386 kts 173°
2026-04-22 14:58 50.59012 9.73070 19758 ft 386 kts 173°
2026-04-22 14:58 50.56332 9.73342 19562 ft 385 kts 173°
2026-04-22 14:58 50.53697 9.73606 19366 ft 384 kts 173°
2026-04-22 14:59 50.51016 9.73874 19170 ft 383 kts 173°
2026-04-22 14:59 50.48355 9.74142 18978 ft 382 kts 173°
2026-04-22 14:59 50.45702 9.74408 18777 ft 381 kts 173°
2026-04-22 14:59 50.43100 9.74671 18594 ft 379 kts 173°
2026-04-22 15:00 50.40466 9.74938 18383 ft 377 kts 173°
2026-04-22 15:00 50.37847 9.75205 18162 ft 375 kts 173°
2026-04-22 15:00 50.35242 9.75472 17934 ft 374 kts 173°
2026-04-22 15:00 50.32644 9.75739 17712 ft 373 kts 173°
2026-04-22 15:01 50.30090 9.75997 17502 ft 372 kts 173°
2026-04-22 15:01 50.27502 9.76256 17282 ft 370 kts 173°
2026-04-22 15:01 50.24933 9.76512 17068 ft 369 kts 173°
2026-04-22 15:01 50.22368 9.76769 16866 ft 368 kts 173°
2026-04-22 15:02 50.19814 9.77023 16666 ft 366 kts 173°
2026-04-22 15:02 50.17275 9.77275 16447 ft 365 kts 173°
2026-04-22 15:02 50.14768 9.77524 16244 ft 364 kts 173°
2026-04-22 15:02 50.12239 9.77774 16037 ft 363 kts 173°
2026-04-22 15:03 50.09723 9.78023 15882 ft 361 kts 173°
2026-04-22 15:03 50.07215 9.78271 15781 ft 361 kts 173°
2026-04-22 15:03 50.04703 9.78498 15679 ft 361 kts 174°
2026-04-22 15:03 50.02189 9.78679 15577 ft 360 kts 175°
2026-04-22 15:04 49.99711 9.78825 15476 ft 360 kts 175°
2026-04-22 15:04 49.97206 9.78964 15379 ft 359 kts 175°
2026-04-22 15:04 49.94699 9.79107 15272 ft 359 kts 175°
2026-04-22 15:04 49.92204 9.79254 15172 ft 358 kts 175°
2026-04-22 15:05 49.89712 9.79406 15072 ft 357 kts 175°
2026-04-22 15:05 49.87259 9.79561 14978 ft 357 kts 175°
2026-04-22 15:05 49.84776 9.79725 14873 ft 356 kts 175°
2026-04-22 15:05 49.82301 9.79889 14769 ft 356 kts 175°
2026-04-22 15:06 49.80653 9.79997 14702 ft 355 kts 175°
2026-04-22 15:06 49.77381 9.80206 14576 ft 354 kts 175°
2026-04-22 15:06 49.74911 9.80367 14482 ft 354 kts 175°
2026-04-22 15:06 49.72456 9.80529 14377 ft 353 kts 175°
2026-04-22 15:07 49.69995 9.80682 14278 ft 353 kts 175°
2026-04-22 15:07 49.67537 9.80804 14169 ft 352 kts 176°
2026-04-22 15:07 49.65079 9.80909 14080 ft 352 kts 176°
2026-04-22 15:07 49.62657 9.81012 13970 ft 351 kts 176°
2026-04-22 15:08 49.60222 9.81286 13864 ft 349 kts 170°
2026-04-22 15:08 49.57831 9.81905 13740 ft 347 kts 167°
2026-04-22 15:08 49.55479 9.82562 13596 ft 346 kts 167°
2026-04-22 15:08 49.53110 9.83221 13466 ft 345 kts 167°
2026-04-22 15:09 49.50738 9.83877 13301 ft 344 kts 167°
2026-04-22 15:09 49.48380 9.84526 13305 ft 344 kts 167°
2026-04-22 15:09 49.46026 9.85171 13307 ft 344 kts 167°
2026-04-22 15:09 49.43669 9.85815 13308 ft 344 kts 167°
2026-04-22 15:10 49.41293 9.86466 13314 ft 344 kts 167°
2026-04-22 15:10 49.38963 9.87107 13307 ft 344 kts 167°
2026-04-22 15:10 49.36613 9.87755 13201 ft 342 kts 167°
2026-04-22 15:10 49.34259 9.88402 12823 ft 341 kts 167°
2026-04-22 15:11 49.31924 9.89043 12454 ft 339 kts 167°
2026-04-22 15:11 49.29603 9.89678 12086 ft 337 kts 167°
2026-04-22 15:11 49.27301 9.90308 11724 ft 334 kts 167°
2026-04-22 15:11 49.24998 9.90736 11372 ft 334 kts 176°
2026-04-22 15:12 49.22703 9.90527 11020 ft 335 kts 186°
2026-04-22 15:12 49.20448 9.89644 10677 ft 335 kts 198°
2026-04-22 15:12 49.18345 9.88104 10339 ft 336 kts 210°
2026-04-22 15:12 49.16477 9.85985 9971 ft 332 kts 220°
2026-04-22 15:13 49.14918 9.83408 9636 ft 327 kts 232°
2026-04-22 15:13 49.13737 9.80539 9613 ft 312 kts 243°
2026-04-22 15:13 49.12930 9.77596 9617 ft 296 kts 250°
2026-04-22 15:13 49.12237 9.74715 9609 ft 281 kts 249°
2026-04-22 15:14 49.11568 9.71973 9601 ft 271 kts 249°
2026-04-22 15:14 49.10912 9.69298 9612 ft 269 kts 249°
2026-04-22 15:14 49.10255 9.66622 9605 ft 268 kts 249°
2026-04-22 15:14 49.09610 9.63980 9603 ft 269 kts 249°
2026-04-22 15:15 49.08955 9.61302 9606 ft 268 kts 249°
2026-04-22 15:15 49.08303 9.58635 9601 ft 268 kts 249°
2026-04-22 15:15 49.07653 9.55970 9596 ft 268 kts 249°
2026-04-22 15:15 49.07012 9.53338 9600 ft 268 kts 249°
2026-04-22 15:16 49.06283 9.50706 9595 ft 268 kts 242°
2026-04-22 15:16 49.05350 9.48300 9577 ft 267 kts 233°
2026-04-22 15:16 49.04192 9.46074 9574 ft 266 kts 225°
2026-04-22 15:16 49.02860 9.44124 9569 ft 265 kts 217°
2026-04-22 15:17 49.01380 9.42461 9564 ft 263 kts 209°
2026-04-22 15:17 48.99791 9.41083 9555 ft 262 kts 205°
2026-04-22 15:17 48.98171 9.39740 9205 ft 266 kts 205°
2026-04-22 15:17 48.96556 9.38401 8824 ft 266 kts 205°
2026-04-22 15:18 48.94927 9.37046 8440 ft 264 kts 205°
2026-04-22 15:18 48.93355 9.35738 8091 ft 257 kts 205°
2026-04-22 15:18 48.91799 9.34427 7735 ft 252 kts 208°
2026-04-22 15:18 48.90392 9.32864 7380 ft 248 kts 218°
2026-04-22 15:19 48.89094 9.31174 7038 ft 242 kts 217°
2026-04-22 15:19 48.87829 9.29545 6690 ft 238 kts 216°
2026-04-22 15:19 48.86572 9.27933 6324 ft 235 kts 217°
2026-04-22 15:19 48.85333 9.26347 6102 ft 230 kts 216°
2026-04-22 15:20 48.84522 9.25313 5981 ft 230 kts 217°
2026-04-22 15:20 48.82901 9.23238 5703 ft 223 kts 217°
2026-04-22 15:20 48.81734 9.21743 5500 ft 220 kts 217°
2026-04-22 15:20 48.80595 9.20281 5397 ft 209 kts 217°
2026-04-22 15:21 48.79484 9.18860 5343 ft 208 kts 217°
2026-04-22 15:21 48.78376 9.17444 5292 ft 209 kts 217°
2026-04-22 15:21 48.77264 9.16022 5237 ft 208 kts 216°
2026-04-22 15:21 48.76165 9.14620 5086 ft 207 kts 216°
2026-04-22 15:22 48.75078 9.13230 4877 ft 201 kts 216°
2026-04-22 15:22 48.74374 9.12328 4738 ft 198 kts 217°
2026-04-22 15:22 48.73327 9.10990 4532 ft 197 kts 217°
2026-04-22 15:22 48.71939 9.09200 4281 ft 198 kts 217°
2026-04-22 15:23 48.71242 9.08303 4153 ft 196 kts 215°
2026-04-22 15:23 48.70080 9.07500 4043 ft 176 kts 183°
2026-04-22 15:23 48.68917 9.07553 4004 ft 161 kts 157°
2026-04-22 15:23 48.67952 9.08295 4009 ft 152 kts 133°
2026-04-22 15:24 48.67304 9.09484 4008 ft 143 kts 111°
2026-04-22 15:24 48.67011 9.10881 4014 ft 139 kts 97°
2026-04-22 15:24 48.66547 9.12177 4008 ft 148 kts 133°
2026-04-22 15:24 48.65523 9.12598 3875 ft 166 kts 182°
2026-04-22 15:25 48.64507 9.11706 3698 ft 176 kts 230°
2026-04-22 15:25 48.63916 9.10100 3436 ft 179 kts 237°
2026-04-22 15:25 48.62935 9.08929 3005 ft 176 kts 189°
2026-04-22 15:25 48.61791 9.08909 2577 ft 164 kts 169°
2026-04-22 15:26 48.60712 9.08517 2482 ft 168 kts 212°
2026-04-22 15:26 48.60084 9.06981 2498 ft 176 kts 259°
2026-04-22 15:26 48.60310 9.05257 2503 ft 168 kts 308°
2026-04-22 15:26 48.61210 9.04332 2504 ft 152 kts 357°
2026-04-22 15:27 48.62191 9.04629 2522 ft 145 kts 30°
2026-04-22 15:27 48.63044 9.05404 2510 ft 140 kts 43°
2026-04-22 15:27 48.63758 9.06337 2516 ft 141 kts 48°
2026-04-22 15:27 48.64411 9.07436 2509 ft 141 kts 52°
2026-04-22 15:28 48.65042 9.08601 2514 ft 143 kts 53°
2026-04-22 15:28 48.65661 9.09779 2509 ft 144 kts 53°
2026-04-22 15:28 48.66270 9.10922 2501 ft 140 kts 53°
2026-04-22 15:28 48.66883 9.12107 2427 ft 144 kts 57°
2026-04-22 15:29 48.67347 9.13390 2202 ft 132 kts 69°
2026-04-22 15:29 48.67616 9.14730 2053 ft 131 kts 74°
2026-04-22 15:29 48.67829 9.16081 1934 ft 133 kts 75°
2026-04-22 15:30 48.68327 9.18751 1595 ft 142 kts 73°
2026-04-22 15:30 48.68631 9.20296 1709 ft 157 kts 77°
2026-04-22 15:30 48.68886 9.21726 2905 ft 135 kts 75°
2026-04-22 15:30 48.69107 9.23104 3847 ft 135 kts 76°
2026-04-22 15:31 48.69299 9.24505 4782 ft 136 kts 78°
2026-04-22 15:31 48.69499 9.25954 5555 ft 152 kts 77°
2026-04-22 15:31 48.69744 9.27570 5847 ft 156 kts 77°
2026-04-22 15:31 48.70009 9.29170 5678 ft 157 kts 76°
2026-04-22 15:32 48.70288 9.30774 5473 ft 157 kts 76°
2026-04-22 15:32 48.70563 9.32359 5279 ft 157 kts 76°
2026-04-22 15:32 48.70840 9.33971 5063 ft 158 kts 76°
2026-04-22 15:32 48.71114 9.35586 4857 ft 157 kts 75°
2026-04-22 15:33 48.71396 9.37255 4665 ft 170 kts 76°
2026-04-22 15:33 48.71690 9.39010 4452 ft 171 kts 75°
2026-04-22 15:33 48.71981 9.40761 4244 ft 172 kts 76°
2026-04-22 15:33 48.72268 9.42496 4080 ft 173 kts 76°
2026-04-22 15:34 48.72766 9.44135 4007 ft 175 kts 48°
2026-04-22 15:34 48.73879 9.44898 3993 ft 183 kts
2026-04-22 15:34 48.75135 9.44409 3782 ft 194 kts 330°
2026-04-22 15:34 48.75962 9.42815 3573 ft 201 kts 295°
2026-04-22 15:35 48.76358 9.40769 3370 ft 203 kts 286°
2026-04-22 15:35 48.76678 9.38700 3262 ft 201 kts 285°
2026-04-22 15:35 48.76982 9.36612 3235 ft 204 kts 281°
2026-04-22 15:35 48.76919 9.34447 3216 ft 207 kts 259°
2026-04-22 15:36 48.76568 9.32335 3202 ft 206 kts 255°
2026-04-22 15:36 48.76161 9.30236 3179 ft 208 kts 254°
2026-04-22 15:36 48.75758 9.28174 3155 ft 206 kts 254°
2026-04-22 15:36 48.75353 9.26091 3127 ft 205 kts 254°
2026-04-22 15:37 48.74948 9.24026 3095 ft 204 kts 253°
2026-04-22 15:37 48.74539 9.21950 3072 ft 205 kts 253°
2026-04-22 15:37 48.74141 9.19908 3052 ft 205 kts 253°
2026-04-22 15:37 48.73739 9.17837 3021 ft 206 kts 253°
2026-04-22 15:38 48.73335 9.15740 2982 ft 206 kts 254°
2026-04-22 15:38 48.72472 9.11713 2948 ft 197 kts 249°
2026-04-22 15:38 48.71974 9.09770 2955 ft 192 kts 248°
2026-04-22 15:39 48.71459 9.07987 2888 ft 183 kts 237°
2026-04-22 15:39 48.70634 9.06574 2547 ft 173 kts 211°
2026-04-22 15:39 48.69551 9.06161 2506 ft 158 kts 173°
2026-04-22 15:39 48.68497 9.06521 2508 ft 154 kts 150°
2026-04-22 15:40 48.67634 9.07428 2508 ft 150 kts 130°
2026-04-22 15:40 48.67070 9.08700 2521 ft 142 kts 108°
2026-04-22 15:40 48.66849 9.10083 2512 ft 135 kts 92°
2026-04-22 15:40 48.66954 9.11536 2436 ft 142 kts 74°
2026-04-22 15:41 48.67220 9.12924 2288 ft 134 kts 72°
2026-04-22 15:41 48.67476 9.14257 2130 ft 132 kts 74°
2026-04-22 15:41 48.67732 9.15598 1967 ft 132 kts 72°
2026-04-22 15:41 48.67984 9.16928 1787 ft 129 kts 73°
2026-04-22 15:42 48.68230 9.18214 1635 ft 131 kts 71°
2026-04-22 15:42 48.68485 9.19536 1419 ft 130 kts 73°
2026-04-22 15:42 48.68731 9.20836 1296 ft 120 kts 74°
2026-04-22 15:42 48.68934 9.21910 1290 ft 87 kts 73°